Regional Weather Roundup
Issued by NWS

Home | Current Version | Previous Version | Graphics & Text | Print | Product List | Glossary On
Versions: 1 2 3 4 5 6 7 8 9 10 11 12 13 14 15 16 17 18 19 20 21 22 23 24 25 26 27 28 29 30 31 32 33 34 35 36 37 38 39 40 41 42 43 44 45 46 47 48 49 50
000
ASUS43 KMPX 271210
RWRMN
WEATHER ROUNDUP FOR MINNESOTA
NATIONAL WEATHER SERVICE TWIN CITIES/CHANHASSEN MN
700 AM CDT WED JUL 27 2016


NOTE: "FAIR" INDICATES FEW OR NO CLOUDS BELOW 12,000 FEET WITH NO
SIGNIFICANT WEATHER AND/OR OBSTRUCTIONS TO VISIBILITY. N/A MEANS
CURRENT SKY AND/OR WEATHER CONDITIONS ARE NOT AVAILABLE.

MNZ060>063-068>070-271300-
   Twin Cities Metro

CITY           SKY/WX    TMP DP  RH WIND       PRES   REMARKS
TWIN CITIES    CLOUDY    76  68  76 SW6       29.96R
6HR MIN TEMP:  76; 6HR MAX TEMP:  80;

ST PAUL        PTSUNNY   74  70  87 S3        29.97R
CRYSTAL        CLOUDY    74  68  81 S3        29.95R
BLAINE         CLOUDY    75  73  94 CALM      29.96R
LAKEVILLE      CLOUDY    70  70 100 CALM      29.98R
EDEN PRAIRIE   CLOUDY    74  69  85 S5        29.95R
6HR MIN TEMP:  74; 6HR MAX TEMP:  77;

LAKEVILLE      CLOUDY    70  70 100 CALM      29.98R
SOUTH ST PAUL  CLOUDY    73  69  86 CALM      29.97R
LAKE ELMO      FAIR      72  70  94 CALM      29.98R
$$
MNZ001>005-007-008-013>017-022>024-027-028-271300-
   Northwest Minnesota

CITY           SKY/WX    TMP DP  RH WIND       PRES   REMARKS
BEMIDJI        CLOUDY    63  59  88 N3        30.01R
HALLOCK        PTCLDY    57  55  94 N8        30.05F
ROSEAU         MOCLDY    57  52  82 NW3       30.04F
WARROAD        PTCLDY    63  57  82 NE8       30.04F
THIEF RVR FALL CLOUDY    61  55  81 N8        30.05R
CROOKSTON      CLOUDY    63  57  82 NE5       30.04R
FOSSTON        CLOUDY    63  57  82 NE5       30.04R
DETROIT LAKES  CLOUDY    64  61  88 N3        30.01R
MOORHEAD       CLOUDY    64  63  94 N10       30.00S
PARK RAPIDS    LGT RAIN  65  61  87 NE5       29.99S
MAHNOMEN       FAIR      63  59  88 NE7       30.01R
$$
MNZ006-009>011-018-025>026-271300-
   North Central Minnesota

CITY           SKY/WX    TMP DP  RH WIND       PRES   REMARKS
BAUDETTE       CLOUDY    62  56  80 N8        30.03S
FLAG ISLAND    CLOUDY    64  55  72 NE12      30.04F
INTL FALLS     CLOUDY    65  56  72 E5        30.02S
6HR MIN TEMP:  64; 6HR MAX TEMP:  69;

WASKISH        CLOUDY    63  57  82 CALM      30.02R
BIG FORK       CLOUDY    64  59  82 N5        30.01R
LONGVILLE      TSTM      64  64 100 CALM      29.99R
GRAND RAPIDS   CLOUDY    64  62  93 CALM      30.00R
CRANE LAKE     CLOUDY    57  57 100 CALM      30.04R
ORR            CLOUDY    63  55  77 CALM      30.01R
COOK           CLOUDY    64  57  77 NE5       30.02R
WALKER         DRIZZLE   64  61  90 N5        29.99F
$$
MNZ012-019>021-037-271300-
   Northeast Minnesota

CITY           SKY/WX    TMP DP  RH WIND       PRES   REMARKS
DULUTH         CLOUDY    66  62  87 SE5       30.00R
6HR MIN TEMP:  66; 6HR MAX TEMP:  71; 6HR PCP:  0.02;

ELY            CLOUDY    63  57  82 N3        30.03R
HIBBING        CLOUDY    64  57  78 E3        30.00R
EVELETH        CLOUDY    63  57  80 CALM      30.01R
DULUTH HARBOR  CLOUDY    66  64  94 CALM      29.98S
TWO HARBORS    CLOUDY    68  61  77 N5        29.98S
SILVER BAY     PTSUNNY   66  57  72 CALM      29.99R
GRAND MARAIS     N/A     67  51  56 E3        30.00R
G MARAIS ARPRT CLOUDY    61  48  63 N7        30.05R
$$
MNZ029>031-032-039>041-046>048-054>057-064-271300-
   West Central Minnesota

CITY           SKY/WX    TMP DP  RH WIND       PRES   REMARKS
FERGUS FALLS   DRIZZLE   66  66 100 NE7       29.99R
WHEATON        MOCLDY    66  64  94 CALM      29.99S
MORRIS         CLOUDY    64  63  94 N5        29.96R
ALEXANDRIA     RAIN      66  63  90 CALM      29.99S FOG
ELBOW LAKE     LGT RAIN  65  65  99 E6        29.98R
WADENA         MOCLDY    63  61  94 N2        29.98S
GLENWOOD       DRIZZLE   64  63  94 N3        29.95F
APPLETON       RAIN      66  63  88 SW6       29.96R
BENSON         RAIN      64  63  94 S9        29.93F
ORTONVILLE     RAIN      64  63  94 N9        29.96F
MADISON        CLOUDY    66  64  94 CALM      29.96R
WILLMAR        FAIR      68  66  94 CALM      29.96F
$$
MNZ033>034-036-042>043-049>051-058-059-271300-
   Central Minnesota

CITY           SKY/WX    TMP DP  RH WIND       PRES   REMARKS
ST CLOUD       CLOUDY    67  67 100 CALM      29.96R
6HR MIN TEMP:  67; 6HR MAX TEMP:  68; 6HR PCP: TRACE;

SAUK CENTRE    RAIN      66  64  94 CALM      29.97F
PAYNESVILLE    RAIN      68  68 100 NW5       29.97F
AITKIN         MIX PCPN  64  59  82 CALM      29.96R
PINE RIVER     TSTM      66  66 100 NW9G17    30.03R
BRAINERD       LGT RAIN  65  65 100 N3        29.97R
STAPLES        CLOUDY    64  63  94 NW6       29.98R
LONG PRAIRIE   RAIN      68  66  94 CALM      29.98F
LITTLE FALLS   LGT RAIN  66  64  94 CALM      29.98R
LITCHFIELD     CLOUDY    72  72 100 CALM      29.96S
BUFFALO        CLOUDY    73  68  87 CALM      29.97S
MAPLE LAKE     CLOUDY    72  71  96 CALM      29.97S
HUTCHINSON     PTCLDY    71  69  94 CALM      29.97S
$$
MNZ037-044-045-052-053-271300-
   East Central Minnesota

CITY           SKY/WX    TMP DP  RH WIND       PRES   REMARKS
PRINCETON      MOCLDY    70  64  83 CALM        N/A
MORA           LGT RAIN  64  63  94 CALM      29.97F
CAMBRIDGE      CLOUDY    70  63  78 CALM      29.94S
RUSH CITY      CLOUDY    66  64  93 CALM      29.96S
MOOSE LAKE     CLOUDY    64  63  94 CALM      29.96R
HINCKLEY       CLOUDY    64  64 100 CALM      29.97S
CLOQUET        CLOUDY    66  61  82 CALM      29.98S
MCGREGOR       CLOUDY    63  61  94 CALM      29.97S
$$
MNZ071>073-080-081-089-090-097-098-271300-
   Southwest Minnesota

CITY           SKY/WX    TMP DP  RH WIND       PRES   REMARKS
MONTEVIDEO     CLOUDY    66  66 100 CALM      29.97F
GRANITE FALLS  PTCLDY    71  68  89 N5        29.96F
CANBY          CLOUDY    68  65  92 W5        30.00R
MARSHALL       CLOUDY    67  66  97 NW5       29.95S
REDWOOD FALLS  PTCLDY    71  66  84 S7        29.94S
OLIVIA         MOCLDY    70  66  88 SE3       29.94F
PIPESTONE      CLOUDY    68  64  88 SW3       29.97R
WINDOM         CLOUDY    72  64  78 S5        29.97R
WORTHINGTON    MOCLDY    69  66  90 VRB3      29.99R
JACKSON        MOCLDY    70  63  78 S8        29.98F
TRACY          CLOUDY    70  67  92 NW6       29.97R
SLAYTON        CLOUDY    68  65  90 S6        29.99R
$$
MNZ065>067-074>077-082>085-091>093-271300-
   South Central Minnesota

CITY           SKY/WX    TMP DP  RH WIND       PRES   REMARKS
MANKATO        CLOUDY    70  63  78 S7        29.98S
NEW ULM        CLOUDY    70  68  94 SE7       29.95F
ST JAMES       CLOUDY    64  63  94 SE3       29.98S
FAIRMONT       CLOUDY    66  63  88 CALM      29.97S
GLENCOE        CLOUDY    72  71  96 S3        29.96S
FARIBAULT      CLOUDY    70  66  88 SE5       29.99S
OWATONNA       PTCLDY    70  64  83 S3        30.00S
WASECA         PTCLDY    64  63  94 S5        30.01S
ALBERT LEA     PTCLDY    68  66  94 CALM      30.01R
$$
MNZ078>079-086>088-094>096-271300-
   Southeast Minnesota

CITY           SKY/WX    TMP DP  RH WIND       PRES   REMARKS
ROCHESTER      MOSUNNY   66  65  96 S5        30.02R
6HR MIN TEMP:  64; 6HR MAX TEMP:  68;

RED WING       CLOUDY    70  68  94 CALM      29.97S
DODGE CENTER   SUNNY     64  63  94 CALM      30.02R
WINONA         SUNNY     70  68  94 N3        30.00R
AUSTIN         PTCLDY    64  63  94 CALM      30.02R
PRESTON        MOSUNNY   65  64  94 S3        30.02S
$$
ABBREVIATIONS USED IN REMARKS
   TC - TEMPERATURES IN CELSIUS
  WCI - WIND CHILL INDEX
   HX - HEAT INDEX
  VSB - VISIBILITY
$$




USA.gov is the U.S. government's official web portal to all federal, state and local government web resources and services.